When you browse on this site, cookies collect data to enhance your experience and personalize the content and advertising you see.
Visit our Privacy Policy to learn more. By continuing to use the site, you agree to this use of cookies and data.
  • In Hungary
  • List of Countries
  • For 7 days
  • Water Temperature
  • Weather Map
  • News
  • Weather Widgets
  • user-avatar
    Login

    Hourly Weather Otnosovo

    Today, 22 August, Thursday

    Time Temperature Precipitation Wind Pressure Humidity
    00:00 +20°C° 0 mm 3 mps 743 mmHg 92%
    01:00 +19°C° 0 mm 3 mps 743 mmHg 93%
    02:00 +19°C° 0 mm 3 mps 743 mmHg 92%
    03:00 +19°C° 0 mm 3 mps 743 mmHg 94%
    04:00 +18°C° 0 mm 3 mps 743 mmHg 95%
    05:00 +18°C° 0 mm 3 mps 744 mmHg 97%
    06:00 +18°C° 0.1 mm 3 mps 744 mmHg 95%
    07:00 +17°C° 0.1 mm 4 mps 745 mmHg 93%
    08:00 +16°C° 0.1 mm 5 mps 745 mmHg 91%
    09:00 +17°C° 0 mm 5 mps 746 mmHg 85%
    10:00 +17°C° 0 mm 5 mps 746 mmHg 79%
    11:00 +19°C° 0 mm 5 mps 746 mmHg 74%
    12:00 +19°C° 0 mm 4 mps 746 mmHg 72%
    13:00 +20°C° 0 mm 4 mps 747 mmHg 71%
    14:00 +20°C° 0 mm 4 mps 747 mmHg 69%
    15:00 +20°C° 0 mm 3 mps 747 mmHg 70%
    16:00 +20°C° 0 mm 3 mps 747 mmHg 71%
    17:00 +20°C° 0 mm 3 mps 747 mmHg 71%
    18:00 +18°C° 0 mm 2 mps 748 mmHg 76%
    19:00 +16°C° 0 mm 2 mps 748 mmHg 80%
    20:00 +15°C° 0 mm 2 mps 748 mmHg 85%
    21:00 +14°C° 0 mm 2 mps 748 mmHg 86%
    22:00 +13°C° 0 mm 2 mps 748 mmHg 86%
    23:00 +13°C° 0 mm 2 mps 749 mmHg 87%

    Tomorrow, 23 August, Friday

    Time Temperature Precipitation Wind Pressure Humidity
    00:00 +12°C° 0 mm 1 mps 749 mmHg 89%
    01:00 +12°C° 0 mm 1 mps 749 mmHg 90%
    02:00 +12°C° 0 mm 1 mps 750 mmHg 91%
    03:00 +11°C° 0 mm 1 mps 749 mmHg 92%
    04:00 +11°C° 0 mm 1 mps 749 mmHg 92%
    05:00 +11°C° 0 mm 1 mps 749 mmHg 93%
    06:00 +13°C° 0 mm 1 mps 750 mmHg 86%
    07:00 +15°C° 0 mm 1 mps 750 mmHg 79%
    08:00 +18°C° 0 mm 1 mps 750 mmHg 73%
    09:00 +19°C° 0 mm 1 mps 750 mmHg 68%
    10:00 +21°C° 0 mm 1 mps 750 mmHg 63%
    11:00 +22°C° 0 mm 1 mps 750 mmHg 58%
    12:00 +22°C° 0 mm 1 mps 750 mmHg 56%
    13:00 +23°C° 0 mm 1 mps 750 mmHg 55%
    14:00 +23°C° 0 mm 2 mps 750 mmHg 53%
    15:00 +23°C° 0 mm 1 mps 750 mmHg 58%
    16:00 +22°C° 0 mm 1 mps 749 mmHg 62%
    17:00 +22°C° 0 mm 1 mps 749 mmHg 67%
    18:00 +20°C° 0 mm 1 mps 749 mmHg 72%
    19:00 +16°C° 0 mm 0 mps 749 mmHg 77%
    20:00 +14°C° 0 mm 0 mps 749 mmHg 83%
    21:00 +13°C° 0 mm 0 mps 749 mmHg 84%
    22:00 +13°C° 0 mm 0 mps 749 mmHg 86%
    23:00 +13°C° 0 mm 1 mps 749 mmHg 88%

    Day after tomorrow, 24 August, Saturday

    Time Temperature Precipitation Wind Pressure Humidity
    00:00 +13°C° 0 mm 1 mps 749 mmHg 89%
    01:00 +13°C° 0 mm 1 mps 749 mmHg 90%
    02:00 +12°C° 0 mm 1 mps 749 mmHg 91%
    03:00 +12°C° 0 mm 1 mps 749 mmHg 91%
    04:00 +12°C° 0 mm 1 mps 749 mmHg 91%
    05:00 +12°C° 0 mm 1 mps 749 mmHg 92%
    06:00 +14°C° 0 mm 2 mps 749 mmHg 87%
    07:00 +16°C° 0 mm 2 mps 749 mmHg 81%
    08:00 +17°C° 0 mm 2 mps 749 mmHg 76%
    09:00 +19°C° 0 mm 2 mps 749 mmHg 71%
    10:00 +20°C° 0 mm 3 mps 749 mmHg 66%
    11:00 +21°C° 0 mm 3 mps 749 mmHg 61%
    12:00 +22°C° 0 mm 3 mps 748 mmHg 60%
    13:00 +22°C° 0 mm 3 mps 748 mmHg 58%
    14:00 +24°C° 0 mm 3 mps 748 mmHg 57%
    15:00 +22°C° 0 mm 3 mps 748 mmHg 61%
    16:00 +22°C° 0 mm 3 mps 747 mmHg 65%
    17:00 +21°C° 0 mm 2 mps 747 mmHg 69%
    18:00 +19°C° 0 mm 2 mps 747 mmHg 75%
    19:00 +18°C° 0 mm 2 mps 747 mmHg 82%
    20:00 +16°C° 0 mm 2 mps 747 mmHg 88%
    21:00 +15°C° 0 mm 2 mps 747 mmHg 90%
    22:00 +15°C° 0 mm 2 mps 747 mmHg 91%
    23:00 +15°C° 0 mm 2 mps 747 mmHg 93%

    25 August, Sunday

    Time Temperature Precipitation Wind Pressure Humidity
    00:00 +14°C° 0 mm 2 mps 747 mmHg 94%
    01:00 +14°C° 0 mm 2 mps 747 mmHg 94%
    02:00 +14°C° 0 mm 2 mps 747 mmHg 95%
    03:00 +14°C° 0 mm 2 mps 747 mmHg 95%
    04:00 +13°C° 0 mm 2 mps 747 mmHg 96%
    05:00 +13°C° 0 mm 2 mps 747 mmHg 96%
    06:00 +15°C° 0 mm 2 mps 747 mmHg 91%
    07:00 +17°C° 0 mm 2 mps 747 mmHg 86%
    08:00 +18°C° 0 mm 2 mps 747 mmHg 81%
    09:00 +19°C° 0 mm 2 mps 747 mmHg 76%
    10:00 +21°C° 0 mm 2 mps 747 mmHg 71%
    11:00 +23°C° 0 mm 2 mps 747 mmHg 67%
    12:00 +23°C° 0.1 mm 2 mps 747 mmHg 64%
    13:00 +24°C° 0.1 mm 2 mps 747 mmHg 62%
    14:00 +24°C° 0.1 mm 2 mps 747 mmHg 60%
    15:00 +23°C° 0.1 mm 2 mps 747 mmHg 65%
    16:00 +23°C° 0.1 mm 2 mps 747 mmHg 69%
    17:00 +22°C° 0.1 mm 1 mps 747 mmHg 74%
    18:00 +20°C° 0 mm 1 mps 747 mmHg 79%
    19:00 +19°C° 0 mm 1 mps 747 mmHg 84%
    20:00 +16°C° 0 mm 1 mps 748 mmHg 89%
    21:00 +15°C° 0 mm 1 mps 748 mmHg 90%
    22:00 +15°C° 0 mm 1 mps 748 mmHg 91%
    23:00 +14°C° 0 mm 1 mps 749 mmHg 93%

    26 August, Monday

    Time Temperature Precipitation Wind Pressure Humidity
    00:00 +14°C° 0 mm 1 mps 749 mmHg 93%
    01:00 +13°C° 0 mm 1 mps 749 mmHg 94%
    02:00 +13°C° 0 mm 1 mps 749 mmHg 94%
    03:00 +13°C° 0 mm 1 mps 749 mmHg 94%
    04:00 +12°C° 0 mm 1 mps 749 mmHg 95%
    05:00 +12°C° 0 mm 1 mps 749 mmHg 95%
    06:00 +14°C° 0 mm 1 mps 749 mmHg 89%
    07:00 +16°C° 0 mm 1 mps 750 mmHg 83%
    08:00 +18°C° 0 mm 1 mps 750 mmHg 77%
    09:00 +20°C° 0 mm 1 mps 750 mmHg 71%
    10:00 +21°C° 0 mm 1 mps 750 mmHg 65%
    11:00 +23°C° 0 mm 1 mps 750 mmHg 59%
    12:00 +23°C° 0 mm 1 mps 750 mmHg 58%
    13:00 +24°C° 0 mm 1 mps 750 mmHg 57%
    14:00 +24°C° 0 mm 2 mps 750 mmHg 55%
    15:00 +23°C° 0 mm 1 mps 749 mmHg 60%
    16:00 +23°C° 0 mm 1 mps 749 mmHg 64%
    17:00 +23°C° 0 mm 1 mps 749 mmHg 68%
    18:00 +21°C° 0 mm 1 mps 749 mmHg 74%
    19:00 +19°C° 0 mm 1 mps 749 mmHg 79%
    20:00 +16°C° 0 mm 1 mps 748 mmHg 85%
    21:00 +16°C° 0 mm 1 mps 749 mmHg 86%
    22:00 +15°C° 0 mm 1 mps 749 mmHg 88%
    23:00 +15°C° 0 mm 1 mps 749 mmHg 90%

    27 August, Tuesday

    Time Temperature Precipitation Wind Pressure Humidity
    00:00 +15°C° 0 mm 1 mps 749 mmHg 89%
    01:00 +16°C° 0 mm 1 mps 749 mmHg 88%
    02:00 +16°C° 0 mm 1 mps 748 mmHg 87%
    03:00 +16°C° 0 mm 1 mps 748 mmHg 89%
    04:00 +15°C° 0 mm 1 mps 748 mmHg 91%
    05:00 +15°C° 0 mm 1 mps 748 mmHg 92%
    06:00 +16°C° 0 mm 1 mps 748 mmHg 88%
    07:00 +19°C° 0 mm 1 mps 748 mmHg 84%
    08:00 +20°C° 0 mm 1 mps 748 mmHg 81%
    09:00 +21°C° 0 mm 1 mps 748 mmHg 74%
    10:00 +23°C° 0 mm 1 mps 748 mmHg 67%
    11:00 +24°C° 0 mm 1 mps 748 mmHg 61%
    12:00 +24°C° 0 mm 1 mps 748 mmHg 58%
    13:00 +25°C° 0 mm 2 mps 748 mmHg 56%
    14:00 +25°C° 0 mm 2 mps 748 mmHg 53%
    15:00 +25°C° 0 mm 1 mps 748 mmHg 57%
    16:00 +24°C° 0 mm 1 mps 748 mmHg 61%
    17:00 +24°C° 0 mm 1 mps 747 mmHg 66%
    18:00 +22°C° 0 mm 1 mps 747 mmHg 71%
    19:00 +20°C° 0 mm 1 mps 747 mmHg 76%
    20:00 +16°C° 0 mm 0 mps 747 mmHg 82%
    21:00 +16°C° 0 mm 1 mps 748 mmHg 83%
    22:00 +16°C° 0 mm 1 mps 748 mmHg 85%
    23:00 +15°C° 0 mm 1 mps 748 mmHg 87%
    Show more